Regional Weather Roundup
Issued by NWS

Home | Current Version | Previous Version | Text Only | Print | Product List | Glossary Off
Versions: 1 2 3 4 5 6 7 8 9 10 11 12 13 14 15 16 17 18 19 20 21 22 23 24 25 26 27 28 29 30 31 32 33 34 35 36 37 38 39 40 41 42 43 44 45 46 47 48 49 50

000
ASUS45 KBOI 031110
RWRID

IDAHO REGIONAL WEATHER ROUNDUP
NATIONAL WEATHER SERVICE BOISE ID
500 AM MDT THU SEP 03 2015

NOTE: "FAIR" INDICATES FEW OR NO CLOUDS BELOW 12000 FEET
WITH NO SIGNIFICANT WEATHER AND/OR OBSTRUCTIONS TO VISIBILITY

IDZ012-014-031200-
SOUTHWEST IDAHO


CITY           SKY/WX    TMP DP  RH WIND       PRES   REMARKS
BOISE          MOCLDY    58  43  57 NW9       29.86R
CALDWELL       MOCLDY    57  37  47 W13       29.89R
MOUNTAIN HOME  CLOUDY    61  42  49 NW20G26   29.84R
$$

IDZ016-017-031200-
SOUTHCENTRAL IDAHO


CITY           SKY/WX    TMP DP  RH WIND       PRES   REMARKS
BURLEY         PTCLDY    60  38  43 W10       29.86R
JEROME         MOCLDY    57  39  51 SW10      29.87R
TWIN FALLS     PTCLDY    60  33  36 SW13      29.88R
$$

IDZ019>023-031200-
SOUTHEAST IDAHO


CITY           SKY/WX    TMP DP  RH WIND       PRES   REMARKS
IDAHO FALLS    PTCLDY    68  41  37 S10       29.83R
POCATELLO      PTCLDY    65  38  36 SW17      29.87R
REXBURG        PTCLDY    59  43  55 CALM      29.84R
$$

IDZ006-010-011-018-031-032-031200-
CENTRAL IDAHO MOUNTAINS


CITY           SKY/WX    TMP DP  RH WIND       PRES   REMARKS
MCCALL         MOCLDY    48  43  82 CALM      29.91R
HAILEY         CLOUDY    54  36  50 NW5       29.90R
STANLEY          N/A     46  31  55 CALM      29.93R
SALMON         MOCLDY    54  41  62 S5        29.83R
CHALLIS        MOCLDY    52  31  44 CALM      29.82R
$$

IDZ002-004-006-007-026-031200-
NORTHERN IDAHO


CITY           SKY/WX    TMP DP  RH WIND       PRES   REMARKS
LEWISTON       CLOUDY    60  48  64 CALM      29.90R
LOWELL           N/A     56  54  93 CALM      29.93R
COEUR D`ALENE  PTCLDY    52  45  76 S5        29.88R
MULLAN PASS    CLOUDY    41  35  79 VRB3      29.96R
$$


USA.gov is the U.S. government's official web portal to all federal, state and local government web resources and services.